Wind_Speed
17 16 16 16 16 16 15 14 14 15 15 15 14 14 14 14 14 14 14 15 14 14 14 14 14 14 14 14 15 15 15 15 15 15 15 15 16 16 16 16 16 16 16
18 17 17 18 18 17 17 17 16 16 16 16 15 15 15 15 15 15 15 15 14 14 14 14 14 14 14 15 15 15 15 15 15 15 15 16 16 16 16 16 16 17 17
19 18 18 18 18 18 18 17 17 17 17 17 17 16 16 16 15 15 15 15 15 15 14 14 14 13 14 15 15 15 15 16 16 16 15 16 16 16 17 17 16 17 17
19 19 19 19 19 18 18 18 18 17 17 18 18 18 17 17 16 16 16 16 15 15 15 14 14 14 15 15 16 16 16 16 15 15 15 16 16 16 16 17 16 17 17
19 20 19 19 20 19 19 19 19 19 18 18 19 19 18 18 17 16 16 16 16 16 15 15 15 15 16 15 16 16 16 16 16 15 16 16 16 16 16 17 17 17 17
21 20 20 19 20 20 20 20 20 20 20 20 20 20 20 19 18 18 17 17 17 16 16 16 16 17 17 17 17 17 17 17 16 16 17 17 16 17 17 17 18 18 18
21 21 21 21 21 21 21 22 21 21 21 22 22 21 21 21 20 19 19 19 18 18 17 17 17 17 17 17 18 18 18 18 17 17 18 18 18 17 18 18 19 19 19
22 21 21 22 22 22 23 23 22 22 22 22 22 22 22 21 21 21 21 20 20 19 18 18 18 18 18 18 18 18 18 19 19 18 19 18 18 18 19 19 20 21 20
23 23 23 23 23 23 23 23 23 22 23 24 23 23 23 23 22 22 22 22 21 21 21 20 20 20 19 20 19 19 19 19 19 19 19 19 19 19 20 21 22 22 22
24 23 24 24 25 24 24 24 24 23 23 23 24 23 23 23 23 23 23 22 22 22 22 22 22 22 21 21 21 20 20 20 20 20 20 20 20 20 21 22 23 23 23
24 25 25 25 26 26 26 26 25 24 24 24 23 23 23 24 24 23 23 23 22 22 22 23 23 22 22 22 22 21 22 21 21 21 21 21 21 21 21 21 22 22 22
25 26 26 26 26 27 28 27 27 26 25 24 24 23 24 24 24 24 24 24 23 23 23 23 23 22 22 23 23 23 23 23 22 22 22 22 21 21 22 22 22 22 22
26 27 27 27 27 28 28 27 26 26 26 26 24 24 24 24 24 25 24 23 23 24 24 24 23 23 23 23 24 24 23 23 23 22 22 22 22 22 22 22 22 22 22
26 27 27 28 27 27 28 27 26 27 27 27 26 26 26 26 25 25 24 24 24 25 25 26 26 25 25 25 24 24 23 23 23 23 23 22 22 22 22 22 22 22 22
26 26 27 27 28 28 28 28 27 27 27 27 27 27 27 27 26 26 25 26 25 25 26 27 27 26 26 25 25 24 24 23 23 23 23 22 22 22 22 22 23 22 22
26 25 26 26 27 28 28 27 26 26 27 27 27 27 27 27 27 26 26 27 26 26 26 27 27 27 26 26 26 25 25 25 24 24 24 23 23 23 23 23 22 22 22
26 26 25 25 26 26 26 26 26 26 27 27 28 28 28 27 27 27 27 27 27 27 27 27 27 27 26 25 25 24 24 24 24 24 24 24 24 24 23 23 22 22 22
27 26 26 25 25 26 26 27 27 27 27 28 29 29 29 28 28 28 27 27 27 27 27 27 27 26 26 26 25 25 25 25 25 25 25 24 24 24 23 23 23 23 23
27 27 27 26 26 26 26 27 28 29 28 29 29 29 29 29 29 28 28 28 28 28 28 28 27 27 26 26 25 25 26 26 26 26 25 24 24 24 23 24 23 24 24
27 27 27 27 26 26 26 27 28 28 29 29 29 29 29 29 29 29 29 29 29 28 28 27 26 25 25 25 25 25 25 24 24 24 24 24 24 24 24 24 24 24 25
28 28 29 29 28 27 27 27 27 27 28 28 29 29 29 29 29 29 29 29 28 27 27 26 25 25 25 25 26 26 25 24 24 23 24 25 25 25 25 25 25 25 26
26 26 27 28 28 28 28 27 27 27 27 27 27 27 27 28 28 28 28 27 27 27 26 26 26 26 26 26 26 26 26 26 26 26 25 25 26 26 26 26 26 25 25
25 26 26 26 26 26 25 25 25 25 26 26 26 26 26 26 25 26 26 27 26 26 26 25 26 27 27 27 28 27 27 27 27 27 27 27 27 27 26 27 27 27 27
25 25 24 24 24 25 24 24 24 25 25 25 25 25 25 25 25 25 26 26 27 26 26 26 27 28 28 28 28 28 27 28 28 28 28 27 27 27 27 27 27 27 27
25 25 24 24 24 24 24 24 23 24 24 24 24 25 26 26 26 26 26 26 26 27 27 27 27 28 28 28 28 28 28 28 28 29 29 29 28 27 28 28 28 28 28
25 25 24 24 24 23 23 23 23 23 25 25 25 26 27 28 28 27 27 26 27 27 27 27 27 28 28 28 28 28 28 28 28 28 29 29 28 28 28 28 28 28 28
Wind_Direction
269 265 263 264 265 267 270 265 264 264 264 265 261 260 262 263 262 263 268 273 275 278 282 283 284 286 288 288 289 286 283 282 283 282 279 281 283 285 286 283 282 278 277
269 265 264 263 262 264 266 266 265 263 262 263 260 260 261 264 265 265 266 267 272 276 279 280 282 286 286 288 288 287 284 283 283 283 281 282 284 286 286 282 279 276 277
270 268 265 263 261 263 264 263 264 264 263 262 260 260 262 264 264 266 266 267 271 276 277 279 280 283 285 288 288 288 286 284 283 284 283 283 284 284 284 283 280 280 280
271 268 263 262 261 260 261 262 265 266 265 264 260 260 263 265 265 265 264 268 271 274 276 278 278 281 285 288 288 288 287 284 285 285 283 284 283 282 283 282 280 281 281
272 268 264 259 257 257 258 260 262 263 263 262 260 262 264 265 264 264 264 267 271 273 275 275 277 281 284 286 289 290 288 284 284 285 284 284 282 281 282 282 281 281 281
271 269 264 261 257 256 257 258 259 261 261 261 260 262 262 263 263 263 265 267 269 272 274 275 277 282 284 285 288 290 288 286 283 283 286 285 281 279 279 282 283 281 281
271 268 265 263 260 258 258 258 260 261 261 260 259 260 261 262 262 263 264 265 267 270 273 276 279 282 284 285 288 289 288 286 284 285 287 286 282 279 279 281 282 284 284
271 267 266 264 263 262 260 259 259 260 260 261 260 260 261 261 263 263 263 263 266 268 271 275 278 281 282 283 286 287 286 286 284 284 287 285 280 278 280 283 284 286 287
269 265 263 263 263 263 263 263 262 261 261 261 260 261 261 262 263 263 263 264 265 267 270 273 277 280 280 282 283 284 285 286 283 283 285 284 281 280 281 283 285 285 287
267 265 263 262 263 263 262 263 263 261 262 261 259 261 262 261 261 261 262 263 265 267 270 272 275 277 277 280 282 282 283 285 283 283 284 284 283 282 282 283 283 284 287
267 265 263 262 262 263 263 263 264 263 262 261 259 260 260 260 259 260 261 263 265 267 269 270 272 275 276 278 280 280 281 282 281 283 283 284 285 285 286 286 286 284 285
265 266 266 264 263 263 262 262 262 263 263 261 260 260 260 259 259 261 261 262 263 265 267 269 271 274 277 277 278 278 278 281 282 283 284 285 285 286 287 287 287 286 285
265 265 265 265 264 263 262 260 259 260 261 260 259 260 259 259 261 261 261 263 264 264 266 269 272 274 276 277 279 278 278 279 280 283 285 286 286 286 286 286 286 287 286
266 265 265 263 262 262 260 258 259 260 260 257 257 258 258 259 260 261 263 266 267 267 269 272 274 276 276 277 278 277 278 278 280 282 282 284 285 285 285 285 286 286 287
270 267 265 264 261 261 260 258 258 258 258 258 258 260 259 259 259 260 262 265 267 269 270 272 274 275 276 276 275 274 274 275 278 281 282 283 285 285 285 285 285 285 285
268 268 265 264 263 262 259 258 257 257 257 258 259 259 259 260 259 260 262 264 266 268 270 271 272 271 272 273 272 272 272 273 275 278 279 280 282 283 283 285 285 284 284
265 266 267 265 263 260 257 256 254 254 255 255 256 256 257 259 260 261 262 264 265 268 270 271 271 270 270 270 271 270 270 271 273 275 276 278 280 281 282 282 282 283 284
262 262 264 265 264 262 259 258 256 255 254 255 257 258 258 259 261 262 264 265 267 268 269 270 270 269 269 269 269 269 268 270 273 275 275 277 278 278 279 279 279 281 283
260 261 262 264 264 264 263 261 260 259 258 257 258 259 259 260 262 262 264 266 267 268 269 270 269 269 267 267 267 268 269 270 272 274 273 275 277 277 278 280 280 281 284
261 260 260 261 263 263 263 262 262 261 261 259 259 259 260 261 262 263 264 266 266 267 269 270 269 269 267 266 268 267 267 269 271 272 272 273 276 277 278 280 281 282 284
261 260 259 259 262 263 264 264 263 261 261 260 259 258 260 262 263 264 265 266 267 268 270 269 267 267 267 266 266 265 265 266 268 271 271 272 275 277 278 279 280 281 283
261 261 260 261 261 263 263 262 261 261 260 259 259 257 258 260 262 264 265 264 265 267 268 267 266 267 267 267 267 266 267 267 268 270 272 274 275 276 278 277 279 281 282
261 260 260 261 259 259 261 261 260 259 259 260 259 259 259 259 260 263 264 264 265 265 265 265 265 264 265 266 267 268 268 269 270 271 271 272 274 275 277 278 278 280 282
258 258 257 258 258 259 261 261 259 260 260 259 259 259 259 259 260 262 263 262 264 265 266 266 264 262 263 265 267 268 269 269 270 270 270 271 273 275 276 277 278 281 282
257 257 256 257 259 259 259 260 258 258 258 259 259 258 258 260 262 263 265 263 264 266 266 267 265 263 264 265 266 267 268 268 270 271 270 270 271 274 276 277 279 280 281
255 256 256 256 257 258 258 258 257 255 258 260 260 261 262 262 263 264 264 264 266 267 268 269 267 265 264 265 266 267 268 269 270 271 271 270 271 273 275 277 280 281 281
Height
5813 5814 5815 5816 5817 5818 5818 5819 5819 5820 5821 5822 5823 5824 5825 5826 5826 5827 5827 5827 5827 5827 5827 5827 5827 5827 5827 5826 5826 5825 5825 5824 5824 5824 5824 5824 5823 5823 5823 5823 5822 5822 5822
5808 5809 5810 5811 5813 5813 5814 5815 5816 5817 5818 5819 5820 5821 5821 5822 5822 5823 5823 5824 5824 5823 5823 5823 5823 5823 5823 5823 5822 5822 5821 5821 5820 5820 5820 5820 5819 5819 5819 5818 5818 5818 5818
5803 5804 5805 5806 5808 5809 5810 5811 5812 5812 5814 5814 5815 5817 5817 5818 5818 5819 5820 5820 5820 5820 5820 5820 5820 5820 5820 5819 5818 5818 5817 5817 5816 5816 5816 5815 5815 5815 5814 5814 5813 5813 5813
5798 5799 5800 5801 5802 5804 5805 5806 5807 5808 5809 5810 5811 5812 5813 5814 5814 5815 5815 5816 5816 5816 5816 5816 5816 5816 5816 5815 5814 5814 5813 5813 5812 5812 5811 5811 5810 5810 5809 5809 5809 5809 5809
5793 5794 5794 5795 5797 5798 5800 5801 5802 5803 5804 5805 5806 5807 5808 5809 5810 5811 5811 5812 5812 5812 5812 5812 5813 5812 5812 5811 5811 5810 5809 5808 5808 5807 5807 5806 5806 5805 5805 5804 5804 5804 5804
5788 5788 5789 5790 5791 5793 5794 5795 5797 5798 5799 5800 5801 5802 5803 5804 5805 5806 5806 5807 5807 5808 5808 5808 5808 5808 5808 5807 5806 5806 5805 5804 5804 5803 5802 5802 5801 5801 5800 5800 5799 5799 5799
5783 5783 5784 5784 5785 5786 5788 5789 5791 5792 5794 5795 5796 5797 5798 5799 5800 5801 5801 5802 5803 5803 5803 5804 5804 5804 5803 5803 5802 5801 5801 5800 5799 5798 5798 5797 5796 5796 5795 5795 5794 5794 5793
5777 5778 5779 5779 5779 5780 5782 5783 5785 5786 5787 5789 5790 5791 5792 5793 5794 5795 5796 5797 5797 5798 5798 5799 5799 5799 5798 5798 5798 5797 5796 5795 5794 5794 5793 5792 5791 5791 5790 5790 5789 5788 5788
5771 5772 5773 5773 5774 5775 5776 5777 5778 5779 5781 5782 5783 5785 5786 5787 5788 5789 5790 5791 5792 5793 5793 5793 5793 5793 5793 5793 5793 5792 5791 5790 5789 5788 5788 5787 5786 5786 5785 5784 5783 5783 5782
5765 5765 5766 5767 5768 5769 5770 5771 5772 5773 5774 5775 5777 5778 5780 5781 5782 5783 5784 5785 5786 5787 5787 5787 5787 5788 5788 5787 5787 5786 5786 5785 5784 5783 5782 5781 5781 5780 5779 5778 5777 5777 5776
5758 5759 5760 5760 5761 5762 5763 5764 5765 5766 5767 5769 5770 5772 5773 5774 5776 5777 5778 5779 5780 5780 5780 5781 5781 5781 5781 5781 5781 5780 5779 5778 5778 5777 5776 5776 5775 5774 5773 5772 5771 5770 5769
5751 5751 5752 5753 5754 5755 5756 5757 5758 5759 5760 5762 5763 5765 5766 5768 5769 5770 5771 5772 5773 5773 5774 5774 5775 5775 5775 5774 5774 5774 5773 5772 5771 5771 5770 5770 5769 5768 5767 5766 5765 5763 5762
5743 5744 5745 5745 5746 5747 5748 5749 5751 5752 5754 5755 5756 5758 5759 5761 5762 5763 5764 5765 5765 5766 5767 5767 5768 5768 5768 5767 5767 5766 5766 5765 5765 5764 5764 5764 5763 5762 5761 5760 5758 5757 5756
5735 5736 5737 5738 5739 5739 5740 5742 5743 5745 5747 5748 5749 5751 5752 5754 5755 5756 5757 5758 5759 5759 5760 5760 5760 5760 5760 5760 5759 5759 5759 5759 5758 5758 5758 5757 5756 5755 5754 5753 5752 5751 5750
5728 5728 5729 5730 5730 5731 5732 5734 5736 5738 5739 5741 5742 5744 5745 5747 5748 5749 5750 5751 5751 5752 5752 5752 5752 5753 5753 5752 5752 5752 5752 5752 5752 5751 5751 5750 5750 5749 5748 5746 5745 5744 5743
5720 5721 5721 5722 5723 5723 5725 5726 5728 5730 5731 5733 5734 5736 5737 5739 5740 5741 5742 5743 5743 5744 5745 5745 5744 5745 5745 5745 5745 5745 5745 5745 5745 5745 5744 5744 5743 5742 5741 5740 5739 5738 5737
5713 5714 5714 5715 5715 5716 5717 5719 5721 5722 5723 5725 5726 5728 5729 5731 5732 5733 5734 5735 5735 5736 5736 5736 5736 5737 5737 5736 5737 5737 5737 5738 5738 5738 5737 5737 5736 5735 5734 5733 5732 5731 5730
5705 5706 5707 5707 5708 5709 5710 5711 5713 5714 5716 5717 5718 5719 5721 5722 5724 5725 5726 5727 5727 5728 5728 5728 5728 5728 5728 5728 5729 5729 5730 5730 5731 5730 5730 5729 5729 5728 5727 5727 5726 5725 5724
5697 5698 5699 5699 5700 5701 5702 5703 5704 5706 5707 5708 5709 5711 5712 5714 5715 5716 5717 5718 5719 5719 5719 5719 5719 5719 5719 5720 5720 5721 5722 5722 5722 5722 5722 5722 5721 5721 5720 5720 5719 5718 5717
5689 5689 5690 5691 5692 5693 5694 5695 5695 5697 5698 5699 5701 5702 5704 5705 5707 5708 5709 5710 5711 5711 5711 5711 5711 5711 5711 5711 5712 5712 5713 5714 5714 5714 5714 5714 5714 5713 5713 5712 5712 5711 5710
5680 5681 5682 5683 5684 5684 5685 5686 5687 5688 5690 5691 5692 5693 5695 5696 5698 5699 5701 5701 5702 5703 5703 5703 5703 5703 5703 5703 5704 5704 5705 5706 5706 5707 5706 5706 5706 5706 5705 5705 5704 5703 5702
5671 5672 5673 5674 5675 5676 5677 5678 5679 5680 5681 5682 5682 5684 5686 5687 5689 5690 5691 5693 5694 5695 5695 5695 5695 5696 5696 5696 5696 5696 5697 5698 5698 5698 5698 5698 5698 5697 5697 5696 5696 5695 5694
5663 5664 5665 5666 5667 5668 5669 5670 5670 5672 5673 5674 5675 5677 5678 5680 5681 5682 5683 5685 5685 5686 5686 5686 5687 5687 5688 5688 5688 5688 5689 5690 5690 5690 5690 5689 5689 5689 5689 5688 5687 5686 5685
5655 5656 5658 5659 5660 5661 5662 5662 5663 5665 5666 5667 5668 5670 5671 5672 5673 5674 5675 5676 5677 5677 5678 5678 5678 5679 5679 5680 5680 5680 5680 5681 5680 5680 5680 5680 5681 5680 5680 5679 5679 5678 5677
5647 5649 5650 5652 5653 5653 5654 5655 5656 5657 5658 5659 5661 5662 5663 5664 5665 5667 5667 5668 5669 5669 5669 5669 5669 5670 5670 5671 5671 5671 5671 5672 5672 5671 5671 5671 5671 5671 5671 5670 5670 5669 5668
5639 5641 5643 5644 5645 5646 5647 5648 5649 5650 5652 5653 5653 5654 5655 5656 5658 5658 5659 5660 5660 5661 5661 5661 5661 5661 5662 5662 5662 5662 5662 5662 5663 5662 5662 5662 5663 5662 5662 5662 5661 5660 5659